CW0315 Weather Reports


time (UTC)temp
C
wind
direction
speed
KPH
gust
KPH
rain 1hr
cm
rain 24hr
cm
rain mn
cm
humidity
%
barometer
mb
20260905034310 16 22 17.7 22.5 0.00 0.00 0.00 67 1016.4
20260905033310 16 45 11.3 20.9 0.00 0.00 0.00 69 1016.3
20260905032310 17 22 1.6 20.9 0.00 0.00 0.00 70 1016.5
20260905031310 17 45 12.9 19.3 0.00 0.00 0.00 72 1016.8
20260905030310 17 360 16.1 25.7 0.00 0.00 0.00 73 1016.4
20260905025309 17 22 20.9 25.7 0.00 0.00 0.00 74 1016.6
20260905024310 17 360 14.5 17.7 0.00 0.00 0.00 74 1016.1
20260905023309 17 45 8.0 12.9 0.00 0.00 0.00 75 1016.1
20260905022309 17 67 6.4 12.9 0.00 0.00 0.00 75 1016.1
20260905021309 17 22 9.7 14.5 0.00 0.00 0.00 77 1016.1
20260905015314 17 0 0.0 0.0 0.00 0.00 0.00 76 1016.1
20260905014314 17 0 0.0 4.8 0.00 0.00 0.00 76 1016.1
20260905013313 17 0 0.0 0.0 0.00 0.00 0.00 75 1016.1
20260905012313 17 0 0.0 0.0 0.00 0.00 0.00 75 1015.9
20260905011313 17 0 0.0 12.9 0.00 0.00 0.00 75 1016.0
20260905010313 17 0 0.0 3.2 0.00 0.00 0.00 75 1016.2
20260905005313 17 0 0.0 0.0 0.00 0.00 0.00 75 1016.0
20260905004313 17 0 0.0 0.0 0.00 0.00 0.00 76 1015.6
20260905003313 17 0 0.0 0.0 0.00 0.00 0.00 75 1015.6
20260905002312 17 45 0.0 1.6 0.00 0.00 0.00 75 1015.4
20260905000312 17 0 0.0 3.2 0.00 0.00 0.00 76 1015.2
20260904235312 17 0 0.0 0.0 0.00 0.00 0.00 76 1015.2
20260904234312 17 45 1.6 4.8 0.00 0.00 0.00 76 1015.2
20260904233312 17 0 0.0 0.0 0.00 0.00 0.00 76 1015.2
20260904232312 17 0 0.0 4.8 0.00 0.00 0.00 75 1015.0
20260904231312 17 22 3.2 6.4 0.00 0.00 0.00 76 1014.9
20260904230311 17 0 0.0 4.8 0.00 0.00 0.00 75 1014.9
20260904225311 17 22 1.6 4.8 0.00 0.00 0.00 75 1014.8
20260904223311 17 45 4.8 6.4 0.00 0.00 0.00 75 1014.5
20260904221311 17 45 3.2 6.4 0.00 0.00 0.00 76 1014.5
20260904220311 17 45 4.8 8.0 0.00 0.00 0.00 75 1014.5
20260904215311 17 22 3.2 6.4 0.00 0.00 0.00 75 1014.5
20260904214310 17 360 1.6 6.4 0.00 0.00 0.00 75 1014.3
20260904213312 17 22 4.8 6.4 0.00 0.00 0.00 75 1014.3
20260904211310 17 45 6.4 8.0 0.00 0.00 0.00 74 1014.2
20260904210310 17 45 6.4 8.0 0.00 0.00 0.00 75 1014.1
20260904205310 17 45 4.8 8.0 0.00 0.00 0.00 75 1014.3
20260904204309 17 22 4.8 8.0 0.00 0.00 0.00 74 1014.4
20260904203309 17 45 4.8 8.0 0.00 0.00 0.00 74 1014.4
20260904202309 17 22 4.8 6.4 0.00 0.00 0.00 73 1014.2
20260904201309 17 45 4.8 6.4 0.00 0.00 0.00 72 1014.0
20260904200309 17 45 6.4 8.0 0.00 0.00 0.00 72 1014.0
20260904195309 17 22 4.8 8.0 0.00 0.00 0.00 71 1014.0
20260904194314 17 45 4.8 8.0 0.00 0.00 0.00 71 1014.0
20260904193314 17 22 6.4 8.0 0.00 0.00 0.00 70 1013.8
20260904192313 17 22 4.8 6.4 0.00 0.00 0.00 69 1014.0
20260904190313 18 45 3.2 8.0 0.00 0.00 0.00 69 1014.0
20260904184313 18 45 4.8 8.0 0.00 0.00 0.00 67 1013.9
20260904183313 18 22 4.8 8.0 0.00 0.00 0.00 66 1013.5
20260904182313 19 22 6.4 6.4 0.00 0.00 0.00 65 1013.7
20260904181313 20 22 3.2 8.0 0.00 0.00 0.00 64 1013.4
20260904180313 20 67 1.6 6.4 0.00 0.00 0.00 62 1013.4
20260904175312 21 22 4.8 6.4 0.00 0.00 0.00 60 1013.4
20260904174312 22 45 1.6 6.4 0.00 0.00 0.00 57 1013.6
20260904173312 22 22 3.2 4.8 0.00 0.00 0.00 56 1013.6
20260904172312 23 360 1.6 3.2 0.00 0.00 0.00 53 1013.6
20260904171312 23 0 0.0 0.0 0.00 0.00 0.00 50 1013.8
20260904164312 24 180 0.0 12.9 0.00 0.03 0.00 48 1014.0
20260904163311 24 180 1.6 11.3 0.00 0.03 0.00 50 1014.1
20260904162311 24 180 0.0 6.4 0.00 0.03 0.00 49 1014.1
20260904161311 25 202 11.3 16.1 0.00 0.03 0.00 49 1014.2
20260904160311 25 180 4.8 9.7 0.00 0.08 0.00 49 1014.5
20260904155311 25 202 8.0 14.5 0.00 0.08 0.00 48 1014.5
20260904154311 25 180 4.8 12.9 0.00 0.08 0.00 49 1014.5
20260904153310 25 202 8.0 17.7 0.00 0.08 0.00 51 1014.7
20260904152310 25 270 3.2 19.3 0.00 0.08 0.00 48 1014.7
20260904150310 25 202 14.5 22.5 0.00 0.08 0.00 47 1015.1
20260904145309 25 180 3.2 17.7 0.00 0.08 0.00 48 1015.3
20260904143309 25 180 6.4 14.5 0.00 0.08 0.00 45 1015.8
20260904141309 25 270 4.8 24.1 0.00 0.08 0.00 44 1016.0
20260904140314 25 247 4.8 17.7 0.00 0.08 0.00 45 1015.9
20260904135314 25 180 11.3 24.1 0.00 0.08 0.00 45 1015.9
20260904134313 25 202 11.3 32.2 0.00 0.08 0.00 47 1016.1
20260904133313 25 180 1.6 9.7 0.00 0.08 0.00 50 1016.7
20260904132313 25 180 4.8 24.1 0.00 0.08 0.00 46 1016.6
20260904131313 25 292 11.3 27.4 0.00 0.08 0.00 48 1016.6
20260904130313 25 202 8.0 20.9 0.00 0.08 0.00 49 1017.0
20260904124313 24 202 6.4 24.1 0.00 0.08 0.00 50 1017.0
20260904123313 24 180 9.7 16.1 0.00 0.08 0.00 52 1017.3
20260904122313 23 180 8.0 24.1 0.00 0.08 0.00 58 1017.2
20260904120312 22 157 6.4 17.7 0.00 0.08 0.00 58 1017.6
20260904115312 22 202 8.0 30.6 0.00 0.08 0.00 59 1017.6
20260904114312 22 202 4.8 12.9 0.00 0.08 0.00 62 1017.8
20260904112312 21 270 1.6 11.3 0.00 0.08 0.00 65 1018.0
20260904111312 21 270 8.0 16.1 0.00 0.08 0.00 62 1018.0
20260904110311 21 225 3.2 14.5 0.00 0.08 0.00 62 1018.3
20260904105311 21 292 6.4 19.3 0.00 0.08 0.00 62 1018.3
20260904104311 21 292 4.8 12.9 0.00 0.08 0.00 65 1018.4
20260904103311 21 202 11.3 17.7 0.00 0.08 0.00 65 1018.9
20260904102311 21 180 3.2 12.9 0.00 0.08 0.00 65 1018.9
20260904101311 22 135 1.6 25.7 0.00 0.08 0.00 65 1019.3
20260904100311 21 292 3.2 19.3 0.00 0.08 0.00 65 1019.1
20260904095310 21 247 1.6 16.1 0.00 0.08 0.00 67 1019.1
20260904094310 21 202 3.2 14.5 0.00 0.08 0.00 68 1019.4
20260904093310 20 180 3.2 11.3 0.00 0.08 0.00 70 1019.3
20260904092310 20 180 4.8 12.9 0.00 0.08 0.00 70 1019.3
20260904091310 20 180 6.4 14.5 0.00 0.08 0.00 70 1019.4
20260904090310 20 202 3.2 11.3 0.00 0.08 0.00 71 1019.4
20260904085310 20 180 3.2 16.1 0.00 0.08 0.00 69 1019.4
20260904084310 20 202 3.2 17.7 0.00 0.08 0.00 67 1019.5
20260904083309 20 180 4.8 12.9 0.00 0.08 0.00 69 1019.6
20260904082309 19 180 1.6 8.0 0.00 0.08 0.00 72 1019.4
20260904080309 17 0 0.0 4.8 0.00 0.08 0.00 74 1019.1
20260904075314 17 0 0.0 4.8 0.00 0.08 0.00 73 1019.1
20260904074314 17 0 0.0 0.0 0.00 0.08 0.00 75 1019.2
20260904073315 17 0 0.0 6.4 0.00 0.08 0.00 74 1018.9
20260904072314 17 202 3.2 6.4 0.00 0.08 0.00 73 1019.1
20260904071313 17 0 0.0 0.0 0.00 0.08 0.00 70 1019.1
20260904070313 17 270 1.6 11.3 0.00 0.08 0.00 72 1019.1
20260904065313 17 0 0.0 6.4 0.00 0.08 0.00 73 1018.9
20260904064313 16 0 0.0 0.0 0.00 0.08 0.00 77 1018.9
20260904063313 16 0 0.0 0.0 0.00 0.08 0.00 78 1019.0
20260904062313 16 0 0.0 0.0 0.00 0.08 0.00 79 1018.8
20260904060312 15 0 0.0 0.0 0.00 0.08 0.00 84 1018.8
20260904055312 15 0 0.0 0.0 0.00 0.08 0.00 86 1018.8
20260904054312 14 0 0.0 0.0 0.00 0.08 0.00 87 1018.7
20260904052312 13 0 0.0 0.0 0.00 0.08 0.00 90 1018.7
20260904051312 13 0 0.0 0.0 0.00 0.08 0.00 91 1018.7
20260904050312 13 0 0.0 0.0 0.00 0.08 0.00 91 1018.9
20260904044311 13 0 0.0 0.0 0.00 0.08 0.00 91 1018.8
20260904043311 13 0 0.0 0.0 0.00 0.08 0.00 91 1019.0
20260904042311 13 0 0.0 0.0 0.00 0.08 0.00 90 1019.0
20260904041311 12 0 0.0 0.0 0.00 0.08 0.00 90 1019.1
20260904040311 12 0 0.0 0.0 0.00 0.08 0.00 90 1019.4